{"data":{"norad_id":59126,"intl_designator":"2024-043AE","name":"YAM-6","alt_names":[],"object_type":"PAYLOAD","status":"ACTIVE","operator":null,"country":"US","launch_date":"2024-03-04","launch_site_code":"AFWTR","launch_vehicle":null,"mission":null,"orbit_class":"UNKNOWN","rcs_meters":null,"size_class":null,"mass_kg":null,"dimensions":null,"purposes":[],"wikipedia_slug":null,"has_3d_model":false,"image_url":null,"decayed_at":null,"tle_current":{"epoch":"2026-05-24T22:33:11.104704Z","epoch_age_seconds":73651,"freshness":"FRESH","line1":"1 59126U 24043AE  26144.93971186  .00007522  00000+0  21191-3 0  9999","line2":"2 59126  97.5531 285.4312 0007121 318.6175  41.4529 15.36724141123748","mean_motion":15.36724141,"eccentricity":0.0007121,"inclination_deg":97.5531,"raan_deg":285.4312,"arg_perigee_deg":318.6175,"mean_anomaly_deg":41.4529,"bstar":0.00021191,"rev_number":12374,"period_min":93.705822768096,"perigee_km":450.93766153803,"apogee_km":460.67056046833,"semimajor_km":6833.9411110032,"source":"CELESTRAK","updated_at":"2026-05-25T13:38:01.195035Z"}}}